Flag for Germany Weather past 2 weeks in Erftstadt, North Rhine-Westphalia, Germany

Now
68 °F

Mild.


Feels Like: 68 °F
Forecast: 61 / 91 °F
Wind: 1 mph from North

Location: Noervenich

Current Time: Aug 2, 2015 at 10:58:36 AM

Latest Report: Aug 2, 2015 at 10:20 AM


Visibility: 5 mi

Pressure: 30.15 "Hg

Humidity: 56%

Dew point: 52 °F

Location of ErftstadtLocation

Historic Weather in Erftstadt — Graph

°F

Erftstadt temperature yesterday

Maximum temperature yesterday: 75 °F (at 3:20 PM)
Minimum temperature yesterday: 50 °F (at 4:20 AM)
Average temperature yesterday: 64 °F

Past Weeks' High & Low Weather Summary

 TemperatureHumidityPressure
High82 °F (Jul 21, 6:20 PM)100% (Jul 19, 4:20 AM)30.15 "Hg (Jul 19, 4:20 AM)
Low46 °F (Jul 31, 6:20 AM)32% (Jul 18, 5:20 PM)29.53 "Hg (Jul 25, 7:20 AM)
Average64 °F72%29.90 "Hg
* Reported Jul 18 9:20 AM — Aug 2 9:20 AM, Erftstadt, Weather by CustomWeather, © 2015

Note: Actual official high and low records may vary slightly from our data, if they occured in-between our weather recording intervals... More about our weather records

Advertising

Erftstadt weather history for previous 24 hours

 ConditionsComfort  
Time TempWeatherWind HumidityBarometerVisibility
9:20 AM
Sun, Aug 2
64 °FMild.1 mph68%30.12 "Hg5 mi
8:20 AM59 °FCool.No wind72%30.12 "Hg4 mi
7:20 AM55 °FCool.1 mph82%30.12 "Hg4 mi
6:20 AM50 °FCool.2 mph94%30.09 "Hg3 mi
5:20 AM54 °FCool.2 mph82%30.09 "Hg4 mi
4:20 AM55 °FCool.1 mph77%30.09 "Hg4 mi
3:20 AM57 °FCool.5 mph72%30.09 "Hg4 mi
2:20 AM57 °FCool.6 mph77%30.09 "Hg4 mi
1:20 AM59 °FCool.5 mph68%30.07 "Hg4 mi
12:20 AM61 °FCool.3 mph63%30.07 "Hg4 mi
11:20 PM
Sat, Aug 1
63 °FMild.3 mph59%30.07 "Hg4 mi
10:20 PM66 °FMild.6 mph52%30.04 "Hg4 mi
9:20 PM68 °FMild.3 mph49%30.01 "Hg4 mi
8:20 PM72 °FMild.3 mph47%30.01 "Hg4 mi
7:20 PM75 °FMild.7 mph39%29.98 "Hg4 mi
6:20 PM75 °FMild.6 mph39%29.98 "Hg4 mi
5:20 PM75 °FMild.2 mph39%29.98 "Hg4 mi
4:20 PM75 °FMild.2 mph36%29.98 "Hg4 mi
3:20 PM75 °FMild.3 mph39%29.98 "Hg4 mi
2:20 PM73 °FMild.3 mph41%29.95 "Hg4 mi
1:20 PM72 °FMild.3 mph41%29.98 "Hg4 mi
12:20 PM70 °FMild.3 mph46%29.98 "Hg5 mi
11:20 AM68 °FPartly sunny.1 mph46%29.98 "HgN/A
10:20 AM64 °FScattered clouds.2 mph56%29.98 "HgN/A
Weather by CustomWeather, © 2015

See weather overviewHow to use our weather pages